Skip Page Navigation
NASA JPL Caltech
NASA Logo - Jet Propulsion Laboratory + View the NASA Portal
+ Center for Near-Earth Object Studies
JPL Home Earth Solar System Stars & Galaxies Technology
JPL Solar System Dynamics
BODIES ORBITS EPHEMERIDES TOOLS PHYSICAL DATA DISCOVERY FAQ SITE MAP
JPL Small-Body Database Browser
Search: [ help ]  
180231 (2003 UD149)
Classification: Main-belt Asteroid          SPK-ID: 2180231
Ephemeris | Orbit Diagram | Orbital Elements | Mission Design | Physical Parameters | Discovery Circumstances ]

[ show orbit diagram ]
Orbital Elements at Epoch 2459200.5 (2020-Dec-17.0) TDB
Reference: JPL 18 (heliocentric ecliptic J2000)
 Element Value Uncertainty (1-sigma)   Units 
e .08136384352468524 4.9783e-08  
a 2.263915535231574 8.485e-09 au
q 2.079714665869888 1.1386e-07 au
i 5.875332330210941 5.3567e-06 deg
node 227.3863149588267 2.9135e-05 deg
peri 185.1886219679568 3.5656e-05 deg
M .6710692087534754 1.9747e-05 deg
tp 2459198.180717944867
(2020-Dec-14.68071795)
6.825e-05 TDB
period 1244.195872730837
3.41
6.9947e-06
1.915e-08
d
yr
n .2893435092417161 1.6267e-09 deg/d
Q 2.44811640459326 9.1754e-09 au
  Orbit Determination Parameters
   # obs. used (total)      522  
   data-arc span      6315 days (17.29 yr)  
   first obs. used      2003-10-19  
   last obs. used      2021-02-01  
   planetary ephem.      DE441  
   SB-pert. ephem.      SB441-N16  
   condition code      0  
   norm. resid. RMS      .52714  
   source      ORB  
   producer      Otto Matic  
   solution date      2021-Apr-13 21:25:40  

Additional Information
 Earth MOID = 1.08963 au 
 Jupiter MOID = 2.81362 au 
 T_jup = 3.606 
[ hide covariance matrix ]
Orbital Elements at Epoch 2458047.5 (2017-Oct-21.0) TDB
Reference: JPL 18 (heliocentric ecliptic J2000)
 Element Value Uncertainty (1-sigma)   Units 
e .08211680890325729 5.003e-08  
q 2.078133434728599 1.1453e-07 au
tp 2457951.264703471166
(2017-Jul-16.76470347)
6.7847e-05 TDB
node 227.4186628220103 2.9102e-05 deg
peri 184.4697388347228 3.5441e-05 deg
i 5.878426489077812 5.3604e-06 deg
  Orbit Determination Parameters
   # obs. used (total)      522  
   data-arc span      6315 days (17.29 yr)  
   first obs. used      2003-10-19  
   last obs. used      2021-02-01  
   planetary ephem.      DE441  
   SB-pert. ephem.      SB441-N16  
   condition code      0  
   norm. resid. RMS      .52714  
   source      ORB  
   producer      Otto Matic  
   solution date      2021-Apr-13 21:25:40  

Additional Information
 Jupiter MOID = 2.81362 au 
 T_jup = 3.606 
Orbit Covariance (6×6)
  e q tp node peri i
e 2.503016550143615E-15 -5.716768814134303E-15 -9.126537423754779E-13 -1.905732277881326E-14 -2.243456887467832E-13 -6.379571285544689E-16
q -5.716768814134303E-15 1.311669686448669E-14 1.979159789890945E-12 4.279773315798484E-14 4.823883750683587E-13 1.697604451984092E-15
tp -9.126537423754779E-13 1.979159789890945E-12 4.603279866789267E-9 7.285676523697658E-12 1.375816666675663E-9 -3.21615825392583E-13
node -1.905732277881326E-14 4.279773315798484E-14 7.285676523697658E-12 8.469293124054436E-10 -8.399887140146196E-10 -2.577379818705651E-11
peri -2.243456887467832E-13 4.823883750683587E-13 1.375816666675663E-9 -8.399887140146196E-10 1.256040002113464E-9 2.554295787898583E-11
i -6.379571285544689E-16 1.697604451984092E-15 -3.21615825392583E-13 -2.577379818705651E-11 2.554295787898583E-11 2.873361976664195E-11

Ephemeris | Orbit Diagram | Orbital Elements | Mission Design | Physical Parameters | Discovery Circumstances ]

Physical Parameter Table
Parameter Symbol Value Units Sigma Reference Notes
absolute magnitude H 16.74   n/a MPCxxxxx  

180231 (2003 UD149)          Discovered 2003-Oct-19 by NEAT at Haleakala
Reference: 20080321/Numbers.arcLast Updated: 2008-03-26

Alternate Designations
 2003 UD149 = 2005 GX207 
Ephemeris | Orbit Diagram | Orbital Elements | Mission Design | Physical Parameters | Discovery Circumstances ]
ABOUT SSD CREDITS/AWARDS PRIVACY/COPYRIGHT GLOSSARY LINKS
FirstGov 2021-May-14 18:12 UT
(server date/time)  
NASA Home Page
Site Manager:   Ryan S. Park
Webmaster  Alan B. Chamberlin